Regional Weather Roundup
Issued by NWS

Home | Current Version | Previous Version | Graphics & Text | Print | Product List | Glossary On
Versions: 1 2 3 4 5 6 7 8 9 10 11 12 13 14 15 16 17 18 19 20 21 22 23 24 25 26 27 28 29 30 31 32 33 34 35 36 37 38 39 40 41 42 43 44 45 46 47 48 49 50
000
ASUS44 KMEG 301200
RWRTN
TENNESSEE HOURLY STATE WEATHER ROUNDUP
NATIONAL WEATHER SERVICE MEMPHIS TN
600 AM CST FRI JAN 30 2015

TNZ002-004-019-021-049-052-054-088>092-301300-
WEST TENNESSEE

CITY           SKY/WX    TMP DP  RH WIND       PRES   REMARKS
MEMPHIS INTL   CLEAR     35  27  72 N6        30.46R WCI  30
NWS MEMPHIS      N/A     37 N/A N/A MISG        N/A
JACKSON        CLOUDY    36  24  62 N15       30.45R WCI  27
DYERSBURG      PTCLDY    36  16  44 N10       30.48R WCI  28
UNION CITY     CLOUDY    32  25  74 N9        30.45R WCI  24
PARIS          CLOUDY    32  21  64 N12       30.44R WCI  23
LEXINGTON      CLOUDY    36  25  64 N9        30.42R WCI  29
SAVANNAH       CLOUDY    37  25  60 N9        30.42R WCI  31
$$

TNZ008-025-027-028-033-062-065-066-301300-
NORTH MIDDLE TENNESSEE

CITY           SKY/WX    TMP DP  RH WIND       PRES   REMARKS
NASHVILLE      CLOUDY    35  24  64 N12G20    30.42R WCI  27
CLARKSVILLE    CLOUDY    34  26  72 N10       30.44R WCI  26
COOKEVILLE     MOCLDY    36  28  75 NW9       30.34R WCI  29
CROSSVILLE     CLOUDY    32  26  78 NW9       30.30R WCI  24
$$

TNZ061-075-076-078-094-096-097-301300-
SOUTH MIDDLE TENNESSEE

CITY           SKY/WX    TMP DP  RH WIND       PRES   REMARKS
FAYETTEVILLE   CLOUDY    34  25  69 MISG      30.36R
TULLAHOMA      CLOUDY    34  27  75 N10       30.36R WCI  26
WINCHESTER     CLOUDY    34  28  80 N12       30.36R WCI  25
COLUMBIA       CLOUDY    36  28  75 N7        30.39R WCI  30
SHELBYVILLE    CLOUDY    36  28  75 N10       30.39S WCI  28
$$

TNZ017-018-042-046-047-301300-
NORTHEAST TENNESSEE

CITY           SKY/WX    TMP DP  RH WIND       PRES   REMARKS
TRI CITIES     CLOUDY    34  25  69 W10       30.22R WCI  26
ELIZABETHTON   CLOUDY    32  23  69 W8        30.19R WCI  25
$$

TNZ012-013-036-069-073-074-301300-
CENTRAL EAST TENNESSEE

CITY           SKY/WX    TMP DP  RH WIND       PRES   REMARKS
KNOXVILLE      CLOUDY    36  25  64 N5        30.31R WCI  32
OAK RIDGE      CLOUDY    38  23  55 N9        30.33R WCI  31
GATLINBURG     CLOUDY    34  25  69 W7        30.29R WCI  28
$$

TNZ083-085-099-301300-
SOUTHEAST TENNESSEE

CITY           SKY/WX    TMP DP  RH WIND       PRES   REMARKS
CHATTANOOGA    MOCLDY    39  25  57 N21G30    30.33R WCI  29
$$

SKY/WX REPORTED AS FAIR MEANS FEW OR NO CLOUDS BELOW
12 THOUSAND FEET.




USA.gov is the U.S. government's official web portal to all federal, state and local government web resources and services.